Location: Arpaise
(41.0333°N, 14.7333°E)
Time: 01:31:47
(UTC+00:00)

Cosmos 2360 Rocket - Pass Details

Date: 05 July 2020
Orbit: 832 x 846 km, 71.0° (Epoch: 11 August)

Event Time Altitude Azimuth Distance (km) Brightness Sun altitude
Rises 20:31:07 0° 226° (SW) 3,375 5.3 -16.9°
Reaches altitude 10° 20:33:44 10° 235° (SW) 2,447 4.6 -17.2°
Maximum altitude 20:38:54 37° 302° (WNW) 1,290 3.7 -17.7°
Drops below altitude 10° 20:44:07 10° 9° (N) 2,469 5.3 -18.3°
Sets 20:46:46 0° 17° (NNE) 3,410 5.9 -18.6°
